Regional Weather Roundup
Issued by NWS

Home | Current Version | Previous Version | Graphics & Text | Print | Product List | Glossary On
Versions: 1 2 3 4 5 6 7 8 9 10 11 12 13 14 15 16 17 18 19 20 21 22 23 24 25 26 27 28 29 30 31 32 33 34 35 36 37 38 39 40 41 42 43 44 45 46 47 48 49 50
000
ASUS43 KBIS 161202
RWRND

NORTH DAKOTA REGIONAL WEATHER ROUNDUP
NATIONAL WEATHER SERVICE BISMARCK ND
600 AM CST SAT DEC 16 2017

NOTE: "FAIR" INDICATES FEW OR NO CLOUDS BELOW 12,000 FEET WITH NO
SIGNIFICANT WEATHER AND/OR OBSTRUCTIONS TO VISIBILITY.


NDZ001>003-009>011-017-161300-
NORTHWEST NORTH DAKOTA

CITY           SKY/WX    TMP DP  RH WIND       PRES   REMARKS
WILLISTON      CLOUDY    32   3  29 W8        29.81R
MINOT          CLOUDY    36  31  82 W14       29.72R
MINOT AFB      CLOUDY    35  31  83 NW14      29.71R
$$

NDZ018>021-031>035-040>046-161300-
SOUTHWEST NORTH DAKOTA

CITY           SKY/WX    TMP DP  RH WIND       PRES   REMARKS
BISMARCK       MOCLDY    37  34  89 W6        29.76R
6HR MIN TEMP:  37; 6HR MAX TEMP:  39; 6HR PCP:  0.06;

DICKINSON      CLOUDY    31  28  89 NW13      29.77R
GARRISON         N/A     34  31  88 NW15      29.73R
6HR MIN TEMP:  34; 6HR MAX TEMP:  38; 6HR PCP:  0.01;

HETTINGER ARPT CLOUDY    32  29  88 W8        29.81R
$$

NDZ004>008-012>016-024-026-027-054-161300-
NORTHEAST NORTH DAKOTA

CITY           SKY/WX    TMP DP  RH WIND       PRES   REMARKS
GRAND FORKS    CLOUDY    21  18  88 E5        29.75R WCI  15
GRND FRKS AFB  CLOUDY    20  18  91 E3        29.73R
DEVILS LAKE    CLOUDY    24  23  96 SE5       29.69S WCI  18
$$

NDZ022-023-025-028>030-036>039-047>053-161300-
SOUTHEAST NORTH DAKOTA

CITY           SKY/WX    TMP DP  RH WIND       PRES   REMARKS
FARGO          CLOUDY    26  22  84 CALM      29.71R
6HR MIN TEMP:  24; 6HR MAX TEMP:  29;

JAMESTOWN      CLOUDY    33  31  92 CALM      29.69R
$$





USA.gov is the U.S. government's official web portal to all federal, state and local government web resources and services.